AEE970 LGAV-LATI

Flight info

Callsign AEE970
Flight time 1h 4m
Altitude 34000
Route KOR UL53 IXONI DCT YNN UL604 DIMIS DCT ADDER DCT ELBAK
Aircraft A320/M-SDE3FGHIRWY/LB1

Departure

Time 2026-05-08 04:20
Airport Athens Eleftherios Venizelos International Airport (LGAV)

Arrival

Time 2026-05-08 05:24
Airport Tirana International Airport Mother Teresa (LATI)
Time Latitude Longitude Altitude Speed Heading
2026-05-08 04:02 37.93331 23.94573 301 ft 0 kts 306°
2026-05-08 04:12 37.93326 23.94581 303 ft 2 kts 304°
2026-05-08 04:12 37.93317 23.94599 302 ft 2 kts 303°
2026-05-08 04:13 37.93308 23.94616 301 ft 2 kts 299°
2026-05-08 04:13 37.93301 23.94635 302 ft 2 kts 291°
2026-05-08 04:13 37.93296 23.94654 301 ft 2 kts 266°
2026-05-08 04:13 37.93301 23.94673 301 ft 2 kts 220°
2026-05-08 04:14 37.93306 23.94679 301 ft 0 kts 216°
2026-05-08 04:14 37.93305 23.94677 301 ft 1 kts 216°
2026-05-08 04:14 37.93298 23.94671 301 ft 0 kts 216°
2026-05-08 04:15 37.93297 23.94670 301 ft 1 kts 216°
2026-05-08 04:15 37.93290 23.94663 302 ft 4 kts 216°
2026-05-08 04:16 37.93256 23.94633 301 ft 8 kts 216°
2026-05-08 04:16 37.93193 23.94601 301 ft 12 kts 186°
2026-05-08 04:16 37.93094 23.94587 301 ft 16 kts 191°
2026-05-08 04:16 37.92988 23.94508 302 ft 20 kts 218°
2026-05-08 04:17 37.92867 23.94395 303 ft 23 kts 216°
2026-05-08 04:17 37.92738 23.94272 303 ft 24 kts 217°
2026-05-08 04:17 37.92630 23.94164 302 ft 21 kts 218°
2026-05-08 04:17 37.92533 23.94076 304 ft 11 kts 215°
2026-05-08 04:18 37.92466 23.94108 302 ft 8 kts 126°
2026-05-08 04:18 37.92426 23.94178 306 ft 12 kts 126°
2026-05-08 04:18 37.92411 23.94277 307 ft 4 kts 82°
2026-05-08 04:18 37.92416 23.94321 308 ft 6 kts 82°
2026-05-08 04:19 37.92425 23.94385 310 ft 9 kts 68°
2026-05-08 04:19 37.92480 23.94447 310 ft 13 kts 36°
2026-05-08 04:19 37.92513 23.94477 309 ft 14 kts 36°
2026-05-08 04:19 37.92807 23.94754 299 ft 89 kts 37°
2026-05-08 04:20 37.93452 23.95368 285 ft 142 kts 37°
2026-05-08 04:20 37.94321 23.96212 591 ft 158 kts 39°
2026-05-08 04:20 37.95180 23.97063 1259 ft 157 kts 38°
2026-05-08 04:20 37.96058 23.97898 1824 ft 159 kts 38°
2026-05-08 04:21 37.96975 23.98764 2198 ft 174 kts 37°
2026-05-08 04:21 37.98006 23.99738 2429 ft 196 kts 37°
2026-05-08 04:21 37.99160 24.00831 2688 ft 219 kts 37°
2026-05-08 04:21 38.00448 24.02054 2977 ft 242 kts 37°
2026-05-08 04:22 38.01816 24.03354 3686 ft 247 kts 37°
2026-05-08 04:22 38.03194 24.04663 4542 ft 248 kts 37°
2026-05-08 04:22 38.04583 24.05985 5376 ft 249 kts 37°
2026-05-08 04:22 38.05972 24.07310 6232 ft 251 kts 37°
2026-05-08 04:23 38.07368 24.08641 7041 ft 252 kts 37°
2026-05-08 04:23 38.08653 24.10155 7785 ft 255 kts 59°
2026-05-08 04:23 38.09174 24.12273 8554 ft 254 kts 92°
2026-05-08 04:23 38.08787 24.14425 9309 ft 251 kts 122°
2026-05-08 04:24 38.07646 24.16056 10051 ft 248 kts 151°
2026-05-08 04:24 38.06052 24.16790 10714 ft 244 kts 180°
2026-05-08 04:24 38.04403 24.16474 11391 ft 240 kts 208°
2026-05-08 04:24 38.03081 24.15220 12057 ft 240 kts 234°
2026-05-08 04:25 38.02251 24.13389 12798 ft 240 kts 245°
2026-05-08 04:25 38.01490 24.11491 13566 ft 243 kts 245°
2026-05-08 04:25 38.00728 24.09597 14267 ft 245 kts 245°
2026-05-08 04:25 37.99939 24.07639 14945 ft 247 kts 244°
2026-05-08 04:26 37.99161 24.05716 15635 ft 249 kts 244°
2026-05-08 04:26 37.98369 24.03763 16310 ft 251 kts 244°
2026-05-08 04:26 37.97567 24.01786 16963 ft 253 kts 243°
2026-05-08 04:26 37.96757 23.99794 17599 ft 256 kts 243°
2026-05-08 04:27 37.95935 23.97774 18249 ft 259 kts 243°
2026-05-08 04:27 37.95102 23.95734 18829 ft 262 kts 243°
2026-05-08 04:27 37.94266 23.93686 19418 ft 262 kts 244°
2026-05-08 04:27 37.93428 23.91636 20046 ft 262 kts 244°
2026-05-08 04:28 37.92592 23.89585 20674 ft 262 kts 245°
2026-05-08 04:28 37.91759 23.87540 21287 ft 262 kts 245°
2026-05-08 04:28 37.90923 23.85490 21885 ft 262 kts 246°
2026-05-08 04:28 37.90086 23.83439 22477 ft 262 kts 246°
2026-05-08 04:29 37.89251 23.81393 23106 ft 260 kts 247°
2026-05-08 04:29 37.88537 23.79295 23502 ft 263 kts 261°
2026-05-08 04:29 37.88635 23.76944 23638 ft 278 kts 282°
2026-05-08 04:29 37.89030 23.74494 23770 ft 291 kts 275°
2026-05-08 04:30 37.89243 23.71881 23881 ft 305 kts 275°
2026-05-08 04:30 37.89433 23.69143 23996 ft 318 kts 274°
2026-05-08 04:30 37.89603 23.66292 24111 ft 331 kts 274°
2026-05-08 04:30 37.89760 23.63330 24225 ft 344 kts 273°
2026-05-08 04:31 37.89912 23.60297 24341 ft 355 kts 273°
2026-05-08 04:31 37.90066 23.57126 24457 ft 366 kts 273°
2026-05-08 04:31 37.90222 23.53861 24636 ft 375 kts 273°
2026-05-08 04:31 37.90378 23.50557 24968 ft 378 kts 273°
2026-05-08 04:32 37.90537 23.47219 25358 ft 381 kts 273°
2026-05-08 04:32 37.90702 23.43868 25753 ft 382 kts 273°
2026-05-08 04:32 37.90869 23.40507 26163 ft 383 kts 273°
2026-05-08 04:32 37.91036 23.37128 26585 ft 384 kts 273°
2026-05-08 04:33 37.91199 23.33747 26990 ft 386 kts 273°
2026-05-08 04:33 37.91361 23.30355 27390 ft 387 kts 273°
2026-05-08 04:33 37.91524 23.26943 27790 ft 389 kts 273°
2026-05-08 04:33 37.91688 23.23507 28180 ft 391 kts 273°
2026-05-08 04:34 37.91850 23.20069 28557 ft 393 kts 273°
2026-05-08 04:34 37.92008 23.16611 28927 ft 394 kts 273°
2026-05-08 04:34 37.92164 23.13128 29305 ft 396 kts 273°
2026-05-08 04:34 37.92319 23.09647 29745 ft 397 kts 272°
2026-05-08 04:35 37.92474 23.06158 30286 ft 394 kts 272°
2026-05-08 04:35 37.92628 23.02723 30785 ft 392 kts 272°
2026-05-08 04:35 37.92781 22.99290 31230 ft 390 kts 272°
2026-05-08 04:35 37.93101 22.95896 31694 ft 389 kts 281°
2026-05-08 04:36 37.93921 22.92635 32185 ft 390 kts 290°
2026-05-08 04:36 37.95229 22.89623 32680 ft 393 kts 300°
2026-05-08 04:36 37.96785 22.86825 33195 ft 391 kts 300°
2026-05-08 04:36 37.98344 22.84013 33699 ft 389 kts 299°
2026-05-08 04:37 37.99890 22.81208 34037 ft 388 kts 299°
2026-05-08 04:37 38.01434 22.78396 34103 ft 389 kts 299°
2026-05-08 04:37 38.04529 22.72736 34109 ft 391 kts 298°
2026-05-08 04:38 38.07635 22.67057 34110 ft 392 kts 299°
2026-05-08 04:38 38.10746 22.61371 34108 ft 392 kts 299°
2026-05-08 04:39 38.13851 22.55695 34108 ft 392 kts 299°
2026-05-08 04:39 38.16960 22.50009 34108 ft 392 kts 299°
2026-05-08 04:40 38.20068 22.44313 34120 ft 392 kts 298°
2026-05-08 04:40 38.23167 22.38604 34113 ft 392 kts 298°
2026-05-08 04:41 38.26244 22.32936 34114 ft 392 kts 298°
2026-05-08 04:41 38.29345 22.27217 34105 ft 392 kts 298°
2026-05-08 04:42 38.32888 22.21861 34118 ft 405 kts 312°
2026-05-08 04:42 38.37353 22.17402 34102 ft 409 kts 314°
2026-05-08 04:43 38.41840 22.12941 34123 ft 409 kts 314°
2026-05-08 04:43 38.46330 22.08455 34103 ft 410 kts 314°
2026-05-08 04:44 38.50820 22.03973 34102 ft 411 kts 313°
2026-05-08 04:44 38.55320 21.99472 34104 ft 411 kts 313°
2026-05-08 04:45 38.59819 21.94965 34104 ft 411 kts 313°
2026-05-08 04:45 38.64309 21.90456 34106 ft 410 kts 313°
2026-05-08 04:46 38.68801 21.85949 34108 ft 410 kts 313°
2026-05-08 04:46 38.73283 21.81431 34107 ft 410 kts 313°
2026-05-08 04:47 38.77773 21.76901 34097 ft 410 kts 313°
2026-05-08 04:47 38.82265 21.72365 34092 ft 411 kts 313°
2026-05-08 04:48 38.86756 21.67822 34107 ft 411 kts 313°
2026-05-08 04:48 38.91254 21.63252 34097 ft 413 kts 312°
2026-05-08 04:49 38.95764 21.58667 34102 ft 414 kts 313°
2026-05-08 04:49 39.00277 21.54071 34100 ft 414 kts 313°
2026-05-08 04:50 39.04795 21.49471 34100 ft 414 kts 312°
2026-05-08 04:50 39.09307 21.44864 34106 ft 415 kts 312°
2026-05-08 04:51 39.13830 21.40239 34117 ft 415 kts 312°
2026-05-08 04:51 39.18323 21.35637 34108 ft 416 kts 313°
2026-05-08 04:52 39.22862 21.30984 34103 ft 417 kts 312°
2026-05-08 04:52 39.27401 21.26311 34106 ft 418 kts 312°
2026-05-08 04:53 39.31949 21.21627 34123 ft 419 kts 312°
2026-05-08 04:53 39.36508 21.16926 34125 ft 418 kts 312°
2026-05-08 04:54 39.41060 21.12233 34159 ft 419 kts 312°
2026-05-08 04:54 39.45607 21.07533 34143 ft 419 kts 312°
2026-05-08 04:55 39.50157 21.02815 34133 ft 419 kts 312°
2026-05-08 04:55 39.54677 20.98119 34102 ft 419 kts 313°
2026-05-08 04:56 39.59219 20.93389 34102 ft 420 kts 312°
2026-05-08 04:56 39.63774 20.88644 34118 ft 420 kts 312°
2026-05-08 04:57 39.68320 20.83898 34124 ft 420 kts 313°
2026-05-08 04:57 39.73481 20.80016 34130 ft 436 kts 325°
2026-05-08 04:58 39.79000 20.76684 34112 ft 438 kts 325°
2026-05-08 04:58 39.84524 20.73340 34096 ft 438 kts 325°
2026-05-08 04:59 39.90018 20.69997 34120 ft 439 kts 325°
2026-05-08 04:59 39.95557 20.66611 34094 ft 440 kts 325°
2026-05-08 05:00 40.01105 20.63223 34088 ft 441 kts 325°
2026-05-08 05:00 40.06669 20.59828 34083 ft 442 kts 325°
2026-05-08 05:01 40.12215 20.56366 34105 ft 441 kts 325°
2026-05-08 05:01 40.17690 20.52842 34101 ft 441 kts 324°
2026-05-08 05:02 40.23203 20.49279 34099 ft 442 kts 324°
2026-05-08 05:02 40.28734 20.45725 34096 ft 443 kts 326°
2026-05-08 05:03 40.34271 20.42171 34069 ft 444 kts 326°
2026-05-08 05:03 40.39818 20.38598 34069 ft 445 kts 327°
2026-05-08 05:04 40.45395 20.35001 34056 ft 447 kts 327°
2026-05-08 05:04 40.48190 20.33191 33659 ft 448 kts 327°
2026-05-08 05:04 40.50051 20.31984 32941 ft 454 kts 327°
2026-05-08 05:05 40.52894 20.30140 32007 ft 458 kts 328°
2026-05-08 05:05 40.55769 20.28270 31094 ft 463 kts 328°
2026-05-08 05:05 40.58663 20.26379 30098 ft 467 kts 329°
2026-05-08 05:05 40.61582 20.24467 29129 ft 467 kts 329°
2026-05-08 05:06 40.64454 20.22589 28638 ft 456 kts 329°
2026-05-08 05:06 40.67281 20.20739 27992 ft 450 kts 329°
2026-05-08 05:06 40.70067 20.18910 27339 ft 445 kts 329°
2026-05-08 05:06 40.72815 20.17101 26722 ft 439 kts 329°
2026-05-08 05:07 40.75539 20.15304 26108 ft 435 kts 329°
2026-05-08 05:07 40.78239 20.13520 25513 ft 432 kts 329°
2026-05-08 05:07 40.80915 20.11750 24905 ft 430 kts 329°
2026-05-08 05:07 40.83574 20.09973 24318 ft 426 kts 327°
2026-05-08 05:08 40.86031 20.07854 23725 ft 419 kts 318°
2026-05-08 05:08 40.88181 20.05309 23084 ft 412 kts 309°
2026-05-08 05:08 40.90018 20.02506 22542 ft 406 kts 306°
2026-05-08 05:08 40.91830 19.99670 22013 ft 402 kts 306°
2026-05-08 05:09 40.93630 19.96864 21494 ft 398 kts 307°
2026-05-08 05:09 40.95415 19.94081 20990 ft 394 kts 307°
2026-05-08 05:09 40.97178 19.91326 20491 ft 390 kts 307°
2026-05-08 05:09 40.98925 19.88593 20019 ft 387 kts 307°
2026-05-08 05:10 41.00653 19.85887 19546 ft 383 kts 307°
2026-05-08 05:10 41.04057 19.80537 18601 ft 377 kts 307°
2026-05-08 05:10 41.05735 19.77886 18075 ft 375 kts 308°
2026-05-08 05:11 41.07403 19.75254 17562 ft 371 kts 308°
2026-05-08 05:11 41.09060 19.72644 17057 ft 368 kts 308°
2026-05-08 05:11 41.10700 19.70061 16561 ft 365 kts 308°
2026-05-08 05:11 41.12305 19.67526 16055 ft 362 kts 308°
2026-05-08 05:12 41.13923 19.64970 15550 ft 360 kts 309°
2026-05-08 05:12 41.15703 19.62646 15025 ft 360 kts 320°
2026-05-08 05:12 41.17802 19.60840 14504 ft 360 kts 332°
2026-05-08 05:12 41.20135 19.59621 13964 ft 361 kts 344°
2026-05-08 05:13 41.22599 19.59030 13387 ft 360 kts 354°
2026-05-08 05:13 41.25089 19.58706 12849 ft 358 kts 354°
2026-05-08 05:13 41.27563 19.58373 12301 ft 357 kts 354°
2026-05-08 05:13 41.29994 19.58039 11770 ft 355 kts 354°
2026-05-08 05:14 41.32482 19.57692 11227 ft 355 kts 354°
2026-05-08 05:14 41.34902 19.57356 10705 ft 354 kts 354°
2026-05-08 05:14 41.37281 19.57030 10541 ft 331 kts 354°
2026-05-08 05:14 41.39501 19.56730 10312 ft 312 kts 354°
2026-05-08 05:15 41.41646 19.56442 10042 ft 308 kts 354°
2026-05-08 05:15 41.43763 19.56155 9858 ft 303 kts 354°
2026-05-08 05:15 41.45865 19.55872 9737 ft 303 kts 354°
2026-05-08 05:15 41.47955 19.55591 9606 ft 302 kts 354°
2026-05-08 05:16 41.50068 19.55306 9141 ft 308 kts 354°
2026-05-08 05:16 41.52183 19.55015 8872 ft 302 kts 354°
2026-05-08 05:16 41.54267 19.54728 8258 ft 300 kts 354°
2026-05-08 05:16 41.56336 19.54447 7640 ft 298 kts 354°
2026-05-08 05:17 41.58390 19.54170 7052 ft 295 kts 354°
2026-05-08 05:17 41.60425 19.53989 6449 ft 292 kts
2026-05-08 05:17 41.62315 19.54822 5856 ft 286 kts 35°
2026-05-08 05:17 41.63636 19.56741 5225 ft 279 kts 66°
2026-05-08 05:18 41.64109 19.59143 5008 ft 258 kts 86°
2026-05-08 05:18 41.64285 19.61440 4873 ft 240 kts 86°
2026-05-08 05:18 41.64450 19.63552 4760 ft 225 kts 86°
2026-05-08 05:18 41.64610 19.65605 4638 ft 219 kts 87°
2026-05-08 05:19 41.64465 19.67579 4539 ft 212 kts 118°
2026-05-08 05:19 41.63474 19.68968 4322 ft 210 kts 158°
2026-05-08 05:19 41.62046 19.69336 3951 ft 212 kts 175°
2026-05-08 05:19 41.60557 19.69518 3591 ft 217 kts 175°
2026-05-08 05:20 41.59060 19.69711 3291 ft 212 kts 174°
2026-05-08 05:20 41.57626 19.69902 3013 ft 202 kts 174°
2026-05-08 05:20 41.56277 19.70082 2772 ft 188 kts 174°
2026-05-08 05:20 41.55023 19.70250 2509 ft 174 kts 174°
2026-05-08 05:21 41.53879 19.70403 2295 ft 159 kts 174°
2026-05-08 05:21 41.52823 19.70544 2103 ft 146 kts 174°
2026-05-08 05:21 41.51826 19.70677 1907 ft 142 kts 174°
2026-05-08 05:21 41.50853 19.70807 1711 ft 140 kts 174°
2026-05-08 05:22 41.49892 19.70935 1529 ft 137 kts 174°
2026-05-08 05:22 41.48950 19.71061 1349 ft 136 kts 174°
2026-05-08 05:22 41.48011 19.71186 1174 ft 136 kts 173°
2026-05-08 05:22 41.47073 19.71311 998 ft 136 kts 174°
2026-05-08 05:23 41.46135 19.71436 819 ft 135 kts 174°
2026-05-08 05:23 41.45197 19.71561 655 ft 136 kts 174°
2026-05-08 05:23 41.44261 19.71685 476 ft 134 kts 174°
2026-05-08 05:23 41.43329 19.71809 296 ft 135 kts 174°
2026-05-08 05:24 41.42396 19.71933 122 ft 134 kts 174°
2026-05-08 05:24 41.41610 19.72041 118 ft 90 kts 174°
2026-05-08 05:24 41.41161 19.72107 123 ft 43 kts 174°
2026-05-08 05:24 41.40915 19.72137 123 ft 32 kts 175°
2026-05-08 05:25 41.40739 19.72158 127 ft 15 kts 175°
2026-05-08 05:25 41.40678 19.72076 124 ft 6 kts 259°
2026-05-08 05:25 41.40665 19.72000 124 ft 10 kts 257°
2026-05-08 05:25 41.40647 19.71896 124 ft 13 kts 257°
2026-05-08 05:26 41.40665 19.71778 122 ft 15 kts 322°
2026-05-08 05:26 41.40779 19.71752 126 ft 18 kts 355°
2026-05-08 05:26 41.40915 19.71718 122 ft 22 kts 349°
2026-05-08 05:26 41.41073 19.71694 123 ft 24 kts 354°
2026-05-08 05:27 41.41250 19.71671 121 ft 25 kts 355°
2026-05-08 05:27 41.41425 19.71650 121 ft 23 kts 355°
2026-05-08 05:27 41.41577 19.71630 119 ft 22 kts 352°
2026-05-08 05:27 41.41729 19.71610 117 ft 21 kts 355°
2026-05-08 05:28 41.41864 19.71592 117 ft 14 kts 355°
2026-05-08 05:28 41.41970 19.71572 118 ft 14 kts 331°
2026-05-08 05:28 41.41986 19.71503 117 ft 0 kts 264°